Погода в Метелево

Россия / Новосибирская область     54°05′32″N   76°44′05″E
темп.,
°C
ветер,
м/с
пор.,
м/с
влажн.,
%
обл.,
%
осадки,
мм/ч
давл.,
гПа
погр.,
м
5 марта, пт
пт501:00−3ю91694100 0.1 1008617
04:00−4ююз91595100 0.6 1005589
07:00−2зюз91486100 1.4 1006792
10:00−8зюз10178875 0.0 1009633
13:00−6зюз9158468 0.0 1013645
16:00−4юз111893100 0.1 10131190
19:00−3юз101694100 1.1 10141200
22:00−3юз91695100 0.9 10141041
6 марта, сб
сб601:00−3юз101787100 1.3 1015840
04:00−4юз91686100 0.0 1013809
07:00−5юз101784100 0.0 1013869
10:00−4юз111791100 0.7 1011916
13:00−2юз111690100 0.8 1010925
16:00−1зюз101488100 0.2 1009969
19:00−1юз81390100 0.3 1010767
22:00−2зюз7129699 0.5 1011678
7 марта, вс
вс701:00−7з5109199 1.1 1013235
04:00−13з459023 0.0 101573
07:00−15з448636 0.0 101867
10:00−14зюз3487100 0.0 102078
13:00−10ююз348381 0.0 1021177
16:00−7ююв468327 0.0 1020258
19:00−8юв5108763 0.0 1018232
22:00−2ю91392100 0.0 1015625
8 марта, пн
пн801:00−4ю81492100 0.0 1013394
04:00−5ю71492100 0.0 1010335
07:00−4ю81590100 0.0 1008388
10:00−4ююз81685100 0.0 1005573
13:00−2юз91590100 0.1 1005827
16:00−6з91391100 1.4 1008659
19:00−9з6128775 1.4 1014424
22:00−13зюз512910 0.0 1019262
9 марта, вт
вт901:00−16зюз489214 0.0 1021144
04:00−15ююз5109396 0.0 1021187
07:00−16ююз5129253 0.0 1022206
10:00−15юз5109125 0.0 1022251
13:00−12ююз588920 0.0 1023331
16:00−9ююз699069 0.0 1021390
19:00−9ююз5109185 0.0 1019329
22:00−11ю51191100 0.0 1017206